Details From LOWW - Wien Schwechat
To LJLJ - Ljubljana
Flight Number -
Tags Generated
Created
Modified
Stats Distance 143 nm / 265 km
Max Altitude 0 ft / 0 m
Waypoints 2
Social Downloads 10
Likes 0
Share VATSIM

Download

Looking for another format? Having issues loading an existing format? Contact us
Advertisement - Login to hide

Notes

Generated

Route

LOWW LJLJ

ID Type Via Altitude Latitude Longitude Leg Dist Tot Dist Heading (true) Name
O LOWW APT - 0 ft / 0 m 48.11978˚ 16.57818˚ - 0 nm - -
O LJLJ APT - 0 ft / 0 m 46.23249˚ 14.44039˚ 143 nm 143 nm 218° / 217° -

Altitude Profile

Advertisement - Login to hide

LOWW

Details ICAO LOWW (VIE)
Name Wien Schwechat
Region Austria
Timezone Europe/Vienna (UTC+2.0)
Stats Elevation 600 ft / 183 m (AMSL)
Location 48.110068° 16.569637°
Runways 2
Magnetic Variation 4.230° E

METAR

LOWW 230850Z 32010KT 9999 FEW036 BKN042 15/09 Q1021 NOSIG

Decode

TAF

TAF LOWW 230515Z 2306/2412 31010KT CAVOK TX16/2313Z TN11/2306Z TEMPO 2309/2316 33015G25KT TEMPO 2312/2318 9999 -RA BKN040 BECMG 2318/2321 27005KT 9999 SCT030 BKN040 BECMG 2406/2408 29010KT FEW020 BKN030

Decode

Departure Runways

ID Width Length Bearing (true) Bearing (mag) Surface Threshold Offset Overrun Length
11 148 ft / 45 m 11,457 ft / 3,492 m 115.99° 111.76° Asphalt 0 ft / 0 m 0 ft / 0 m
16 148 ft / 45 m 11,811 ft / 3,600 m 164.23° 160.00° Asphalt 0 ft / 0 m 33 ft / 10 m
29 148 ft / 45 m 11,457 ft / 3,492 m 296.03° 291.80° Asphalt 0 ft / 0 m 0 ft / 0 m
34 148 ft / 45 m 11,811 ft / 3,600 m 344.24° 340.01° Asphalt 0 ft / 0 m 0 ft / 0 m

LJLJ

Details ICAO LJLJ (LJU)
Name LJUBLJANA
Region Slovenia
Timezone Europe/Ljubljana (UTC+2.0)
Stats Elevation 1,273 ft / 388 m (AMSL)
Location 46.223685° 14.457608°
Runways 1
Magnetic Variation 3.636° E

METAR

LJLJ 230900Z 06004KT 360V100 9999 FEW007 13/11 Q1022 NOSIG

Decode

TAF

TAF LJLJ 230800Z 2309/2409 VRB02KT CAVOK BECMG 2309/2311 12004KT FEW050 SCT100 PROB40 TEMPO 2316/2324 SCT040 BKN100 BECMG 2318/2319 30002KT BECMG 2403/2405 BKN035

Decode

Destination Runways

ID Width Length Bearing (true) Bearing (mag) Surface Threshold Offset Overrun Length
13 148 ft / 45 m 10,811 ft / 3,295 m 126.47° 122.83° Asphalt 0 ft / 0 m 0 ft / 0 m
31 148 ft / 45 m 10,811 ft / 3,295 m 306.49° 302.85° Asphalt 0 ft / 0 m 0 ft / 0 m

Approach Navaids

Runway Type Ident Frequency Range Bearing (true) Bearing (mag) Slope Elevation
31 Localiser LJB 110.50 MHz 18 nm / 33 km 306.46° 302.83° - 1,282 ft / 391 m (AMSL)
31 Glidescope LJB 110.50 MHz 10 nm / 19 km 306.48° 302.84° 3.00° 1,198 ft / 365 m (AMSL)
31 DME LJB 110.50 MHz 18 nm / 33 km - - - 1,198 ft / 365 m (AMSL)

Popular Alternatives